Tracking 31027 objects as of 19-Jul-2025
HD Live streaming from Space Station
objects crossing your sky now

STARLINK-3969

Track STARLINK-3969 now!
10-day predictions
STARLINK-3969 is classified as:


NORAD ID: 52551
Int'l Code: 2022-051U
Perigee: 545.9 km
Apogee: 547.8 km
Inclination: 53.2 °
Period: 95.4 minutes
Semi major axis: 6917 km
RCS: Unknown
Launch date: May 13, 2022
Source: United States (US)
Launch site: AIR FORCE WESTERN TEST RANGE (AFWTR)
Your satellite tracking list
STARLINK-31611
Track 1 satellite(s)




NASA's NSSDC Master Catalog

Two Line Element Set (TLE):
1 52551U 22051U   25199.44839274  .00000561  00000-0  53353-4 0  9990
2 52551  53.2176 100.6728 0001404  89.6671 270.4482 15.08841290176081
Source of the keplerian elements: AFSPC